This is the latest recevied weather packets stored in our database for station/object KD6VPH. If no packets are shown the sender has not sent any weather packets the latest 10 day(s).
| Time | Temp. | Humidity | Pressure | Rain* | Wind** | Luminosity | Snow |
|---|---|---|---|---|---|---|---|
| 1788137860 | 73° F | 56% | 762.2 mmHg | 0 in | - | 250 W/m² | - |
| 1788137260 | 74° F | 54% | 762.2 mmHg | 0 in | - | 534 W/m² | - |
| 1788136660 | 74° F | 54% | 762.4 mmHg | 0 in | - | 541 W/m² | - |
| 1788135460 | 74° F | 54% | 762.5 mmHg | 0 in | - | 677 W/m² | - |
| 1788134860 | 74° F | 54% | 762.5 mmHg | 0 in | - | 714 W/m² | - |
| 1788134260 | 75° F | 52% | 762.6 mmHg | 0 in | - | 802 W/m² | - |
| 1788133660 | 74° F | 55% | 762.7 mmHg | 0 in | - | 854 W/m² | - |
| 1788133060 | 73° F | 54% | 762.7 mmHg | 0 in | - | 708 W/m² | - |
| 1788132460 | 74° F | 53% | 762.7 mmHg | 0 in | - | 450 W/m² | - |
| 1788131860 | 74° F | 53% | 762.8 mmHg | 0 in | - | 659 W/m² | - |
| 1788130660 | 73° F | 58% | 763 mmHg | 0 in | - | 1042 W/m² | - |
| 1788130060 | 74° F | 54% | 763 mmHg | 0 in | - | 241 W/m² | - |
| 1788129460 | 74° F | 53% | 763.2 mmHg | 0 in | - | 1169 W/m² | - |
| 1788128860 | 73° F | 57% | 763.1 mmHg | 0 in | - | 1127 W/m² | - |
| 1788128260 | 73° F | 55% | 763.3 mmHg | 0 in | - | 1116 W/m² | - |
| 1788127660 | 73° F | 55% | 763.3 mmHg | 0 in | - | 1178 W/m² | - |
| 1788127060 | 73° F | 55% | 763.3 mmHg | 0 in | - | 1206 W/m² | - |
| 1788126460 | 73° F | 54% | 763.5 mmHg | 0 in | - | 1035 W/m² | - |
| 1788125860 | 73° F | 55% | 763.5 mmHg | 0 in | - | 1129 W/m² | - |
| 1788125260 | 73° F | 57% | 763.5 mmHg | 0 in | - | 1222 W/m² | - |
| 1788124660 | 72° F | 58% | 763.6 mmHg | 0 in | - | 1216 W/m² | - |
| 1788124060 | 71° F | 59% | 763.6 mmHg | 0 in | - | 1280 W/m² | - |
| 1788123460 | 71° F | 60% | 763.7 mmHg | 0 in | - | 332 W/m² | - |
| 1788123014 | 72° F | 61% | 763.6 mmHg | 0 in | - | 584 W/m² | - |
| 1788122860 | 72° F | 61% | 763.6 mmHg | 0 in | - | 584 W/m² | - |
* Rain latest hour (hover to see other rain measurements)
** Current wind speed in m/s (hover to see current wind gust speed)